Terminal Aerodrome Forecast
Issued by NWS

Home | Current Version | Previous Version | Text Only | Print | Product List | Glossary On
Versions: 1 2 3 4 5 6 7 8 9 10 11 12 13 14 15 16 17 18 19 20 21 22 23 24 25 26 27 28 29 30
000
FTUS45 KSLC 242336
TAFOGD
TAF
KOGD 242336Z 2500/2524 31008KT P6SM SKC
     FM250300 VRB05KT P6SM SKC
     FM251800 29007KT P6SM FEW130=

USA.gov is the U.S. government's official web portal to all federal, state and local government web resources and services.